Total_Precipitation_Accumulation
0.01 0.04 0.10 0.08 0.08 0.08 0.09 0.10 0.10 0.10 0.12 0.14 0.14 0.15 0.19 0.19 0.15 0.11 0.12 0.15 0.18 0.22 0.27 0.29 0.32 0.36 0.34 0.31 0.26 0.11 0.03 0.01 0.01 0.01 0.02 0.03 0.05 0.06 0.05 0.05 0.06 0.07 0.09
0.01 0.03 0.08 0.08 0.08 0.09 0.10 0.10 0.08 0.08 0.10 0.12 0.14 0.18 0.21 0.19 0.14 0.12 0.14 0.15 0.18 0.23 0.25 0.24 0.20 0.17 0.17 0.15 0.11 0.04 0.01 0.00 0.00 0.00 0.00 0.01 0.03 0.05 0.05 0.05 0.06 0.08 0.11
0.02 0.04 0.07 0.07 0.08 0.09 0.08 0.07 0.05 0.06 0.09 0.12 0.15 0.20 0.21 0.17 0.14 0.15 0.17 0.16 0.18 0.19 0.18 0.15 0.11 0.06 0.03 0.02 0.01 0.01 0.01 0.00 0.00 0.00 0.01 0.02 0.02 0.04 0.05 0.06 0.07 0.08 0.08
0.02 0.04 0.05 0.07 0.08 0.09 0.07 0.05 0.05 0.06 0.09 0.12 0.15 0.20 0.19 0.16 0.15 0.14 0.13 0.13 0.13 0.10 0.08 0.06 0.03 0.01 0.00 0.00 0.00 0.00 0.00 0.00 0.00 0.00 0.01 0.01 0.02 0.05 0.07 0.07 0.08 0.07 0.07
0.03 0.04 0.07 0.08 0.09 0.08 0.06 0.05 0.05 0.07 0.10 0.12 0.15 0.18 0.17 0.16 0.16 0.14 0.11 0.09 0.06 0.03 0.02 0.01 0.00 0.00 0.00 0.00 0.00 0.00 0.00 0.00 0.00 0.00 0.01 0.02 0.03 0.07 0.07 0.08 0.09 0.09 0.10
0.06 0.07 0.10 0.09 0.09 0.07 0.05 0.05 0.06 0.08 0.10 0.13 0.16 0.17 0.17 0.17 0.16 0.17 0.11 0.05 0.03 0.01 0.01 0.00 0.00 0.00 0.00 0.00 0.00 0.00 0.00 0.00 0.00 0.00 0.01 0.02 0.05 0.11 0.11 0.11 0.12 0.13 0.16
0.11 0.14 0.15 0.12 0.11 0.08 0.06 0.06 0.06 0.09 0.12 0.16 0.16 0.16 0.17 0.16 0.14 0.13 0.10 0.03 0.01 0.01 0.01 0.00 0.00 0.00 0.00 0.00 0.00 0.00 0.00 0.00 0.00 0.00 0.01 0.02 0.06 0.12 0.12 0.11 0.12 0.15 0.16
0.20 0.23 0.23 0.19 0.16 0.11 0.08 0.07 0.07 0.10 0.14 0.17 0.17 0.16 0.17 0.14 0.10 0.08 0.08 0.03 0.01 0.01 0.01 0.01 0.01 0.01 0.00 0.00 0.00 0.00 0.00 0.00 0.00 0.00 0.01 0.01 0.04 0.09 0.10 0.09 0.09 0.09 0.10
0.39 0.37 0.32 0.23 0.19 0.15 0.11 0.08 0.08 0.12 0.16 0.18 0.17 0.16 0.16 0.14 0.10 0.05 0.05 0.03 0.01 0.01 0.01 0.01 0.01 0.01 0.01 0.01 0.01 0.00 0.00 0.00 0.00 0.00 0.00 0.02 0.05 0.09 0.08 0.08 0.08 0.07 0.07
0.70 0.59 0.47 0.34 0.23 0.19 0.15 0.10 0.08 0.10 0.16 0.18 0.15 0.11 0.09 0.11 0.10 0.06 0.02 0.02 0.01 0.01 0.02 0.02 0.02 0.02 0.01 0.01 0.00 0.00 0.00 0.00 0.00 0.00 0.00 0.02 0.05 0.08 0.07 0.07 0.07 0.07 0.07
1.01 0.85 0.67 0.51 0.39 0.25 0.18 0.13 0.09 0.09 0.13 0.14 0.10 0.07 0.05 0.07 0.07 0.05 0.02 0.01 0.01 0.02 0.02 0.02 0.02 0.02 0.01 0.00 0.00 0.00 0.00 0.00 0.00 0.00 0.00 0.02 0.04 0.05 0.05 0.05 0.06 0.07 0.07
1.13 0.99 0.85 0.68 0.55 0.42 0.28 0.18 0.15 0.11 0.11 0.11 0.08 0.06 0.04 0.04 0.03 0.02 0.02 0.01 0.01 0.01 0.02 0.01 0.01 0.01 0.00 0.00 0.00 0.00 0.00 0.00 0.00 0.00 0.00 0.01 0.02 0.03 0.04 0.04 0.05 0.06 0.06
1.31 1.19 1.05 0.86 0.71 0.57 0.40 0.24 0.17 0.12 0.11 0.10 0.07 0.05 0.03 0.03 0.03 0.02 0.02 0.01 0.01 0.01 0.01 0.00 0.00 0.00 0.00 0.00 0.00 0.00 0.00 0.00 0.00 0.00 0.00 0.00 0.01 0.01 0.02 0.03 0.04 0.05 0.05
1.43 1.30 1.23 1.12 0.91 0.73 0.51 0.33 0.19 0.13 0.11 0.10 0.08 0.06 0.03 0.02 0.02 0.01 0.01 0.01 0.00 0.00 0.00 0.00 0.00 0.00 0.00 0.00 0.00 0.00 0.00 0.00 0.00 0.00 0.00 0.00 0.00 0.01 0.02 0.03 0.03 0.04 0.05
1.35 1.31 1.22 1.17 1.04 0.86 0.66 0.46 0.27 0.18 0.11 0.10 0.09 0.06 0.04 0.02 0.02 0.01 0.01 0.01 0.01 0.00 0.00 0.00 0.00 0.00 0.00 0.00 0.00 0.00 0.00 0.00 0.00 0.00 0.00 0.00 0.00 0.00 0.01 0.02 0.03 0.05 0.07
1.28 1.29 1.26 1.17 1.07 0.98 0.81 0.60 0.38 0.26 0.18 0.14 0.11 0.07 0.05 0.03 0.02 0.01 0.01 0.00 0.00 0.00 0.00 0.00 0.00 0.00 0.00 0.00 0.00 0.00 0.00 0.00 0.00 0.00 0.00 0.00 0.00 0.00 0.00 0.01 0.03 0.07 0.12
1.28 1.36 1.32 1.24 1.16 1.00 0.87 0.74 0.55 0.38 0.26 0.19 0.15 0.10 0.06 0.04 0.02 0.01 0.01 0.00 0.00 0.00 0.00 0.00 0.00 0.00 0.00 0.00 0.00 0.00 0.00 0.00 0.00 0.00 0.00 0.00 0.00 0.00 0.00 0.01 0.03 0.08 0.14
1.35 1.43 1.42 1.29 1.20 1.08 0.92 0.82 0.68 0.49 0.36 0.25 0.21 0.15 0.08 0.05 0.03 0.02 0.01 0.01 0.01 0.01 0.01 0.01 0.01 0.01 0.01 0.01 0.01 0.01 0.01 0.01 0.00 0.00 0.00 0.00 0.00 0.00 0.00 0.01 0.03 0.06 0.11
1.38 1.48 1.51 1.45 1.33 1.27 1.21 1.03 0.88 0.71 0.49 0.37 0.30 0.23 0.15 0.10 0.07 0.04 0.03 0.02 0.03 0.02 0.02 0.02 0.02 0.03 0.03 0.03 0.03 0.02 0.02 0.01 0.01 0.01 0.00 0.00 0.00 0.01 0.01 0.02 0.02 0.03 0.05
1.52 1.63 1.63 1.59 1.54 1.57 1.56 1.41 1.14 0.93 0.67 0.50 0.40 0.31 0.29 0.23 0.18 0.11 0.06 0.07 0.07 0.06 0.05 0.05 0.06 0.06 0.07 0.08 0.06 0.03 0.02 0.01 0.01 0.01 0.01 0.01 0.01 0.02 0.03 0.03 0.03 0.02 0.02
1.57 1.68 1.70 1.64 1.66 1.68 1.61 1.44 1.23 1.00 0.88 0.72 0.60 0.50 0.44 0.41 0.39 0.30 0.18 0.17 0.17 0.14 0.13 0.14 0.13 0.12 0.11 0.13 0.10 0.05 0.03 0.02 0.01 0.01 0.01 0.02 0.02 0.03 0.03 0.04 0.03 0.02 0.02
1.44 1.65 1.76 1.75 1.77 1.66 1.52 1.52 1.46 1.36 1.19 1.06 0.93 0.78 0.61 0.53 0.52 0.46 0.38 0.35 0.33 0.29 0.25 0.24 0.23 0.20 0.17 0.20 0.18 0.16 0.07 0.03 0.01 0.02 0.02 0.02 0.03 0.03 0.03 0.04 0.04 0.03 0.03
1.24 1.53 1.68 1.78 1.83 1.84 1.79 1.91 1.82 1.64 1.37 1.10 0.92 0.85 0.77 0.70 0.65 0.59 0.56 0.55 0.52 0.48 0.42 0.41 0.40 0.36 0.31 0.30 0.29 0.30 0.18 0.07 0.04 0.03 0.03 0.03 0.03 0.03 0.03 0.04 0.05 0.05 0.04
1.02 1.26 1.44 1.68 1.85 1.93 2.01 1.97 1.85 1.62 1.35 1.09 1.03 1.11 1.07 0.93 0.81 0.74 0.69 0.67 0.66 0.59 0.51 0.55 0.58 0.52 0.48 0.40 0.37 0.33 0.27 0.20 0.17 0.10 0.05 0.05 0.05 0.04 0.05 0.06 0.05 0.05 0.05
0.86 1.06 1.19 1.39 1.67 1.76 1.74 1.75 1.81 1.68 1.47 1.32 1.23 1.15 1.09 0.97 0.87 0.80 0.74 0.72 0.70 0.66 0.61 0.60 0.60 0.60 0.59 0.53 0.45 0.41 0.37 0.28 0.20 0.19 0.12 0.07 0.08 0.08 0.08 0.08 0.07 0.06 0.06
0.68 0.87 1.05 1.12 1.30 1.45 1.45 1.52 1.59 1.51 1.45 1.34 1.18 1.08 1.02 0.93 0.83 0.78 0.74 0.72 0.70 0.67 0.63 0.63 0.66 0.67 0.65 0.58 0.49 0.42 0.43 0.37 0.29 0.29 0.26 0.18 0.16 0.14 0.13 0.12 0.11 0.11 0.12